Date String (YYYY-MM-DD hh:mm:ss) UTC,Instrument flags,absolute air pressure of the measurement (hPa),sample flow rate (lpm),inlet stack bypass flow (lpm),air temperature of the measurement (°C),ambient temperature measured by the external sensor (°C),aerosol sample conditioner tube jacket temperature (°C),OPC LED temperature (°C),internal box temperature (°C),relative humidity of the measurement (%),span deviation,mass concentration of particles derived from Lorenz-Mie calculation of OPC scattering (μg/m³),mass concentration of particles derived from Lorenz-Mie calculation of OPC scattering (μg/m³),mass concentration of particles derived from Lorenz-Mie calculation of OPC scattering (μg/m³)
DateTimeUTC,F1_M11,P_M11,Q1_M11,Q2_M11,T1_M11,T2_M11,T3_M11,T4_M11,T5_M11,U1_M11,ZSPAN_M11,X0_M11,X2_M11,X1_M11
2023-11-10 02:00:00,SystemResetWarning,0834.9,5.00,000.00,025.9,024.8,000.0,034.3,027.3,9.1,0000.0,0013.14,0004.37,0003.53
2023-11-10 02:01:00,SystemResetWarning,0835.4,5.00,000.00,025.9,024.8,000.0,034.3,027.3,8.9,0000.0,0012.86,0004.36,0003.55
2023-11-10 02:02:00,SystemResetWarning,0835.3,5.00,000.00,025.9,024.8,000.0,034.3,027.4,8.9,0000.0,0012.42,0004.37,0003.57
2023-11-10 02:03:00,SystemResetWarning,0835.3,5.00,000.00,025.9,024.8,000.0,034.3,027.4,8.9,0000.0,0012.53,0004.44,0003.60
2023-11-10 02:04:00,SystemResetWarning,0835.4,5.00,000.00,025.9,024.8,000.0,034.3,027.3,8.9,0000.0,0012.92,0004.51,0003.61
2023-11-10 02:05:00,SystemResetWarning,0835.4,5.00,000.00,025.9,024.8,000.0,034.3,027.3,8.9,0000.0,0013.87,0004.58,0003.62
2023-11-10 02:06:00,SystemResetWarning,0835.2,5.00,000.00,025.9,024.8,000.0,034.3,027.3,8.8,0000.0,0013.93,0004.61,0003.62
2023-11-10 02:07:00,SystemResetWarning,0834.9,5.00,000.00,025.9,024.8,000.0,034.3,027.3,8.9,0000.0,0013.72,0004.56,0003.61
2023-11-10 02:08:00,SystemResetWarning,0835.0,5.00,000.00,025.9,024.8,000.0,034.3,027.3,8.4,0000.0,0014.61,0004.64,0003.62
2023-11-10 02:09:00,SystemResetWarning,0835.4,4.99,000.00,025.9,024.8,000.0,034.3,027.3,8.4,0000.0,0016.05,0004.69,0003.61
2023-11-10 02:10:00,SystemResetWarning,0835.2,5.00,000.00,025.8,024.8,000.0,034.3,027.3,8.4,0000.0,0015.94,0004.69,0003.59
2023-11-10 02:11:00,SystemResetWarning,0835.1,5.00,000.00,025.8,024.8,000.0,034.3,027.3,8.5,0000.0,0017.66,0004.72,0003.57
2023-11-10 02:12:00,SystemResetWarning,0835.4,4.99,000.00,025.8,024.8,000.0,034.3,027.3,8.5,0000.0,0018.61,0004.81,0003.56
2023-11-10 02:13:00,SystemResetWarning,0834.8,5.00,000.00,025.8,024.8,000.0,034.3,027.3,8.5,0000.0,0019.06,0004.81,0003.54
2023-11-10 02:14:00,SystemResetWarning,0834.9,5.00,000.00,025.8,024.8,000.0,034.2,027.2,8.5,0000.0,0018.25,0004.80,0003.52
2023-11-10 02:15:00,SystemResetWarning,0834.8,5.00,000.00,025.8,024.8,000.0,034.2,027.2,8.5,0000.0,0017.89,0004.72,0003.50
2023-11-10 02:16:00,SystemResetWarning,0834.9,5.00,000.00,025.8,024.8,000.0,034.2,027.2,8.5,0000.0,0017.60,0004.75,0003.48
2023-11-10 02:17:00,SystemResetWarning,0834.8,5.01,000.00,025.8,024.8,000.0,034.2,027.2,8.4,0000.0,0017.11,0004.75,0003.47
2023-11-10 02:18:00,SystemResetWarning,0834.7,5.00,000.00,025.8,024.8,000.0,034.2,027.2,8.4,0000.0,0016.77,0004.77,0003.44
2023-11-10 02:19:00,SystemResetWarning,0834.8,5.00,000.00,025.7,024.7,000.0,034.2,027.2,8.4,0000.0,0017.19,0004.72,0003.42
2023-11-10 02:20:00,SystemResetWarning,0834.7,4.99,000.00,025.7,024.7,000.0,034.2,027.2,8.4,0000.0,0015.90,0004.65,0003.39
2023-11-10 02:21:00,SystemResetWarning,0834.7,4.99,000.00,025.7,024.7,000.0,034.2,027.2,8.4,0000.0,0015.51,0004.64,0003.37
2023-11-10 02:22:00,SystemResetWarning,0834.7,5.00,000.00,025.7,024.7,000.0,034.2,027.2,8.5,0000.0,0013.99,0004.59,0003.35
2023-11-10 02:23:00,SystemResetWarning,0834.8,5.01,000.00,025.7,024.7,000.0,034.2,027.2,8.5,0000.0,0013.44,0004.53,0003.34
2023-11-10 02:24:00,SystemResetWarning,0834.7,5.01,000.00,025.7,024.7,000.0,034.2,027.2,8.5,0000.0,0013.92,0004.46,0003.33
2023-11-10 02:25:00,SystemResetWarning,0834.8,5.00,000.00,025.7,024.7,000.0,034.1,027.2,8.5,0000.0,0014.00,0004.41,0003.31
2023-11-10 02:26:00,SystemResetWarning,0834.7,5.01,000.00,025.7,024.7,000.0,034.1,027.2,8.5,0000.0,0014.29,0004.40,0003.30
2023-11-10 02:27:00,SystemResetWarning,0834.8,4.99,000.00,025.7,024.7,000.0,034.1,027.2,8.5,0000.0,0015.23,0004.41,0003.30
2023-11-10 02:28:00,SystemResetWarning,0834.7,5.00,000.00,025.7,024.7,000.0,034.1,027.2,8.5,0000.0,0015.53,0004.35,0003.30
2023-11-10 02:29:00,SystemResetWarning,0834.8,4.99,000.00,025.7,024.7,000.0,034.1,027.2,9.0,0000.0,0015.88,0004.35,0003.30
2023-11-10 02:30:00,SystemResetWarning,0834.9,5.00,000.00,025.7,024.7,000.0,034.1,027.1,9.2,0000.0,0015.16,0004.35,0003.31
2023-11-10 02:31:00,SystemResetWarning,0835.0,5.00,000.00,025.7,024.7,000.0,034.1,027.1,9.3,0000.0,0014.81,0004.38,0003.31
2023-11-10 02:32:00,SystemResetWarning,0835.0,5.00,000.00,025.7,024.6,000.0,034.1,027.1,9.4,0000.0,0015.01,0004.41,0003.31
2023-11-10 02:33:00,SystemResetWarning,0834.9,5.00,000.00,025.7,024.6,000.0,034.1,027.1,9.5,0000.0,0015.61,0004.44,0003.32
2023-11-10 02:34:00,SystemResetWarning,0835.0,5.01,000.00,025.7,024.6,000.0,034.1,027.1,10.1,0000.0,0015.72,0004.46,0003.35
2023-11-10 02:35:00,SystemResetWarning,0835.1,5.00,000.00,025.7,024.6,000.0,034.1,027.0,10.4,0000.0,0014.76,0004.49,0003.37
2023-11-10 02:36:00,SystemResetWarning,0835.2,5.00,000.00,025.7,024.6,000.0,034.1,027.0,10.6,0000.0,0015.13,0004.52,0003.41
2023-11-10 02:37:00,SystemResetWarning,0835.2,5.00,000.00,025.6,024.5,000.0,034.1,027.0,10.6,0000.0,0015.13,0004.52,0003.44
2023-11-10 02:38:00,SystemResetWarning,0835.0,5.00,000.00,025.6,024.5,000.0,034.1,027.0,10.0,0000.0,0013.97,0004.50,0003.47
2023-11-10 02:39:00,SystemResetWarning,0834.8,5.00,000.00,025.6,024.5,000.0,034.0,027.0,10.2,0000.0,0013.09,0004.51,0003.51
2023-11-10 02:40:00,SystemResetWarning,0834.9,5.00,000.00,025.6,024.5,000.0,034.0,027.0,10.7,0000.0,0012.13,0004.49,0003.55
2023-11-10 02:41:00,SystemResetWarning,0834.7,5.00,000.00,025.6,024.4,000.0,034.0,027.0,10.2,0000.0,0012.37,0004.51,0003.58
2023-11-10 02:42:00,SystemResetWarning,0834.8,5.00,000.00,025.6,024.4,000.0,034.0,027.0,9.9,0000.0,0011.81,0004.50,0003.62
2023-11-10 02:43:00,SystemResetWarning,0834.7,5.00,000.00,025.6,024.4,000.0,034.0,027.0,10.1,0000.0,0011.56,0004.48,0003.66
2023-11-10 02:44:00,SystemResetWarning,0835.0,4.99,000.00,025.6,024.4,000.0,034.0,026.9,10.1,0000.0,0011.07,0004.52,0003.69
2023-11-10 02:45:00,SystemResetWarning,0835.1,5.00,000.00,025.6,024.4,000.0,034.0,027.0,9.9,0000.0,0010.45,0004.52,0003.70
2023-11-10 02:46:00,SystemResetWarning,0835.0,5.01,000.00,025.5,024.4,000.0,034.0,027.0,9.7,0000.0,0010.29,0004.50,0003.71
2023-11-10 02:47:00,SystemResetWarning,0834.5,5.01,000.00,025.5,024.4,000.0,034.0,026.9,9.5,0000.0,0009.95,0004.49,0003.72
2023-11-10 02:48:00,SystemResetWarning,0834.5,5.01,000.00,025.5,024.4,000.0,034.0,026.9,9.6,0000.0,0009.84,0004.51,0003.73
2023-11-10 02:49:00,SystemResetWarning,0834.5,4.99,000.00,025.5,024.3,000.0,034.0,026.9,9.6,0000.0,0010.00,0004.51,0003.73
2023-11-10 02:50:00,SystemResetWarning,0834.5,5.00,000.00,025.5,024.3,000.0,033.9,026.9,9.7,0000.0,0010.71,0004.50,0003.71
2023-11-10 02:51:00,SystemResetWarning,0834.5,4.99,000.00,025.5,024.3,000.0,033.9,026.9,10.4,0000.0,0010.97,0004.53,0003.70
2023-11-10 02:52:00,SystemResetWarning,0834.5,5.00,000.00,025.5,024.3,000.0,033.9,026.9,10.3,0000.0,0010.88,0004.54,0003.70
2023-11-10 02:53:00,SystemResetWarning,0834.5,5.00,000.00,025.5,024.3,000.0,033.9,026.8,10.3,0000.0,0011.28,0004.59,0003.71
2023-11-10 02:54:00,SystemResetWarning,0834.5,5.00,000.00,025.5,024.3,000.0,033.9,026.8,10.3,0000.0,0011.68,0004.64,0003.70
2023-11-10 02:55:00,SystemResetWarning,0834.5,5.00,000.00,025.5,024.3,000.0,033.9,026.8,10.4,0000.0,0011.64,0004.63,0003.70
2023-11-10 02:56:00,SystemResetWarning,0834.5,5.00,000.00,025.5,024.3,000.0,033.9,026.8,10.2,0000.0,0011.73,0004.66,0003.71
2023-11-10 02:57:00,SystemResetWarning,0834.5,5.00,000.00,025.4,024.3,000.0,033.9,026.8,10.0,0000.0,0012.00,0004.71,0003.73
2023-11-10 02:58:00,SystemResetWarning,0834.5,5.00,000.00,025.4,024.3,000.0,033.9,026.8,9.9,0000.0,0011.55,0004.76,0003.74
2023-11-10 02:59:00,SystemResetWarning,0834.5,5.00,000.00,025.4,024.3,000.0,033.9,026.8,10.3,0000.0,0011.37,0004.73,0003.74
